Tracking 30264 objects as of 15-Feb-2025
HD Live streaming from Space Station
objects crossing your sky now

USA 445

Track USA 445 now!
10-day predictions


NORAD ID: 62344
Int'l Code: 2024-243E
Perigee: 582.1 km
Apogee: 586.3 km
Inclination: 70.0 °
Period: 96.2 minutes
Semi major axis: 6955 km
RCS: Unknown
Launch date: December 17, 2024
Source: United States (US)
Launch site: AIR FORCE WESTERN TEST RANGE (AFWTR)
Your satellite tracking list
Your tracking list is empty




NASA's NSSDC Master Catalog

Two Line Element Set (TLE):
1 62344U 24243E   25018.16991674 0.00000000  00000-0  00000-0 0    06
2 62344  70.0000 151.9648 0003000 224.1883 135.8610 14.96716376    07
Source of the keplerian elements: McCants